Location: Unspecified
(44.0704°N, 88.6889°W)
Time: 15:22:38
(UTC+02:00)

Altair - Pass Details

Date: 19 June 2019
Orbit: 1501 x 1683 km, 47.2° (Epoch: 17 July)

Event Time Altitude Azimuth Distance (km) Brightness Sun altitude
Rises 06:02:54 0° 255° (WSW) 4,746 10.2 -17.7°
Reaches altitude 10° 06:05:56 10° 256° (WSW) 3,787 9.7 -18.0°
Maximum altitude 06:15:39 82° 345° (NNW) 1,647 7.7 -18.7°
Drops below altitude 10° 06:25:47 10° 74° (ENE) 3,924 9.6 -19.4°
Sets 06:28:59 0° 75° (ENE) 4,925 10.1 -19.6°
